This is the latest recevied weather packets stored in our database for station/object EA3FHP. If no packets are shown the sender has not sent any weather packets the latest 10 day(s).
| Time | Temp. | Humidity | Pressure | Rain* | Wind** | Luminosity | Snow |
|---|---|---|---|---|---|---|---|
| 1777204803 | 23.33° C | 59% | 1020.1 hPa | 0 mm | - | - | - |
| 1777204203 | 22.78° C | 60% | 1020.2 hPa | 0 mm | - | - | - |
| 1777203603 | 24.44° C | 56% | 1020.2 hPa | 0 mm | - | - | - |
| 1777203003 | 23.33° C | 53% | 1020.2 hPa | 0 mm | - | - | - |
| 1777202403 | 22.22° C | 55% | 1020.3 hPa | 0 mm | - | - | - |
| 1777201803 | 22.22° C | 58% | 1020.4 hPa | 0 mm | - | - | - |
| 1777201203 | 22.22° C | 55% | 1020.3 hPa | 0 mm | - | - | - |
| 1777200603 | 21.67° C | 56% | 1020.6 hPa | 0 mm | - | - | - |
| 1777200004 | 21.67° C | 62% | 1020.7 hPa | 0 mm | - | - | - |
| 1777199403 | 21.67° C | 66% | 1020.6 hPa | 0 mm | - | - | - |
| 1777198803 | 20.56° C | 67% | 1020.8 hPa | 0 mm | - | - | - |
| 1777198203 | 20.56° C | 66% | 1020.7 hPa | 0 mm | - | - | - |
| 1777197604 | 20° C | 66% | 1020.9 hPa | 0 mm | - | - | - |
| 1777197003 | 19.44° C | 67% | 1021.1 hPa | 0 mm | - | - | - |
| 1777196403 | 19.44° C | 70% | 1020.9 hPa | 0 mm | - | - | - |
| 1777195803 | 18.89° C | 70% | 1020.9 hPa | 0 mm | - | - | - |
| 1777195203 | 19.44° C | 72% | 1020.8 hPa | 0 mm | - | - | - |
| 1777194604 | 18.33° C | 71% | 1021.1 hPa | 0 mm | - | - | - |
| 1777194003 | 17.78° C | 73% | 1021.1 hPa | 0 mm | - | - | - |
| 1777193403 | 17.22° C | 71% | 1020.8 hPa | 0 mm | - | - | - |
| 1777192804 | 16.67° C | 74% | 1021.1 hPa | 0 mm | - | - | - |
| 1777192203 | 16.11° C | 76% | 1021.3 hPa | 0 mm | - | - | - |
| 1777191603 | 16.11° C | 77% | 1021.1 hPa | 0 mm | - | - | - |
| 1777191003 | 15° C | 79% | 1021.2 hPa | 0 mm | - | - | - |
| 1777190403 | 15° C | 80% | 1021.1 hPa | 0 mm | - | - | - |
* Rain latest hour (hover to see other rain measurements)
** Current wind speed in m/s (hover to see current wind gust speed)